Terminal Aerodrome Forecast
Issued by NWS Shreveport, LA

Home | Current Version | Previous Version | Text Only | Print | Product List | Glossary On
Versions: 1 2 3 4 5 6 7 8 9 10 11 12 13 14 15
019
FTUS44 KSHV 271556 AAA
TAFELD
TAF AMD
KELD 271556Z 2716/2812 11007KT P6SM VCSH SCT005 OVC035
     FM272100 14008KT P6SM VCTS BKN025 OVC035CB
     FM280000 15009KT P6SM BKN035 OVC050
     FM280300 17007KT P6SM OVC015
     FM280800 19007KT 2SM BR OVC010=

USA.gov is the U.S. government's official web portal to all federal, state and local government web resources and services.